AAL1217 KHTS-KBOS

Flight info

Callsign AAL1217
Flight time 1h 31m
Altitude 37000
Route DCT HVQ J6 MRB DCT EMI DCT MXE DCT ARD DCT JFK ROBUC3
Aircraft A319/M-SDE3FGHIRWY/LB1

Departure

Time 2026-05-07 01:46
Airport Tri-State Airport / Milton J. Ferguson Field (KHTS)

Arrival

Time 2026-05-07 03:18
Airport Boston Logan International Airport (KBOS)
Time Latitude Longitude Altitude Speed Heading
2026-05-07 01:14 38.36879 -82.55575 848 ft 0 kts 22°
2026-05-07 01:15 38.36865 -82.55582 848 ft 0 kts 22°
2026-05-07 01:37 38.36863 -82.55583 837 ft 3 kts 23°
2026-05-07 01:38 38.36840 -82.55599 847 ft 4 kts 41°
2026-05-07 01:38 38.36824 -82.55624 847 ft 4 kts 76°
2026-05-07 01:38 38.36825 -82.55650 835 ft 4 kts 113°
2026-05-07 01:38 38.36834 -82.55682 838 ft 2 kts 111°
2026-05-07 01:39 38.36835 -82.55684 838 ft 0 kts 111°
2026-05-07 01:42 38.36834 -82.55682 847 ft 1 kts 111°
2026-05-07 01:42 38.36829 -82.55666 840 ft 3 kts 111°
2026-05-07 01:42 38.36820 -82.55636 842 ft 4 kts 111°
2026-05-07 01:42 38.36806 -82.55593 843 ft 6 kts 111°
2026-05-07 01:43 38.36788 -82.55536 848 ft 8 kts 111°
2026-05-07 01:43 38.36767 -82.55466 837 ft 9 kts 111°
2026-05-07 01:43 38.36758 -82.55379 848 ft 11 kts 98°
2026-05-07 01:43 38.36730 -82.55285 846 ft 12 kts 112°
2026-05-07 01:44 38.36694 -82.55180 840 ft 14 kts 113°
2026-05-07 01:44 38.36655 -82.55063 844 ft 15 kts 112°
2026-05-07 01:44 38.36628 -82.54979 848 ft 16 kts 112°
2026-05-07 01:44 38.36581 -82.54878 846 ft 11 kts 159°
2026-05-07 01:45 38.36519 -82.54903 840 ft 9 kts 205°
2026-05-07 01:45 38.36504 -82.54966 842 ft 8 kts 297°
2026-05-07 01:45 38.36507 -82.54974 838 ft 0 kts 295°
2026-05-07 01:45 38.36508 -82.54976 838 ft 2 kts 295°
2026-05-07 01:46 38.36566 -82.55148 848 ft 56 kts 293°
2026-05-07 01:46 38.36805 -82.55889 837 ft 121 kts 292°
2026-05-07 01:46 38.37189 -82.57071 991 ft 157 kts 292°
2026-05-07 01:46 38.37634 -82.58329 1694 ft 154 kts 299°
2026-05-07 01:47 38.38283 -82.59391 2377 ft 152 kts 313°
2026-05-07 01:47 38.39017 -82.60365 3017 ft 155 kts 314°
2026-05-07 01:47 38.39779 -82.61400 3509 ft 167 kts 313°
2026-05-07 01:47 38.40599 -82.62536 3978 ft 182 kts 312°
2026-05-07 01:48 38.41517 -82.63790 4311 ft 205 kts 313°
2026-05-07 01:48 38.42736 -82.64910 4651 ft 232 kts 340°
2026-05-07 01:48 38.44419 -82.64952 5098 ft 261 kts 17°
2026-05-07 01:48 38.45934 -82.63574 5784 ft 282 kts 52°
2026-05-07 01:49 38.46662 -82.61208 6514 ft 297 kts 85°
2026-05-07 01:49 38.46556 -82.58553 7258 ft 304 kts 103°
2026-05-07 01:49 38.46071 -82.55897 8066 ft 311 kts 110°
2026-05-07 01:49 38.45476 -82.53201 8884 ft 320 kts 111°
2026-05-07 01:50 38.44894 -82.50421 9709 ft 328 kts 109°
2026-05-07 01:50 38.44360 -82.47528 10249 ft 346 kts 106°
2026-05-07 01:50 38.43864 -82.44415 10644 ft 368 kts 104°
2026-05-07 01:50 38.43413 -82.41158 11324 ft 377 kts 103°
2026-05-07 01:51 38.42992 -82.37831 12107 ft 383 kts 102°
2026-05-07 01:51 38.42580 -82.34459 12894 ft 388 kts 101°
2026-05-07 01:51 38.42162 -82.31032 13684 ft 393 kts 101°
2026-05-07 01:51 38.41728 -82.27566 14366 ft 399 kts 102°
2026-05-07 01:52 38.41272 -82.24049 15005 ft 406 kts 103°
2026-05-07 01:52 38.40801 -82.20476 15634 ft 412 kts 103°
2026-05-07 01:52 38.40317 -82.16845 16300 ft 418 kts 103°
2026-05-07 01:52 38.39825 -82.13159 16908 ft 425 kts 104°
2026-05-07 01:53 38.39323 -82.09419 17538 ft 431 kts 105°
2026-05-07 01:53 38.38813 -82.05621 18154 ft 438 kts 105°
2026-05-07 01:53 38.38296 -82.01772 18694 ft 444 kts 105°
2026-05-07 01:53 38.37774 -81.97873 19218 ft 449 kts 105°
2026-05-07 01:54 38.37245 -81.93926 19762 ft 455 kts 105°
2026-05-07 01:54 38.36707 -81.89927 20303 ft 461 kts 105°
2026-05-07 01:54 38.36162 -81.85880 20851 ft 466 kts 105°
2026-05-07 01:54 38.35634 -81.81781 21397 ft 474 kts 101°
2026-05-07 01:55 38.35462 -81.77606 21927 ft 483 kts 91°
2026-05-07 01:55 38.35787 -81.73313 22457 ft 491 kts 80°
2026-05-07 01:55 38.36576 -81.69059 23020 ft 497 kts 74°
2026-05-07 01:55 38.37457 -81.64769 23482 ft 503 kts 75°
2026-05-07 01:56 38.38335 -81.60435 23900 ft 510 kts 75°
2026-05-07 01:56 38.39221 -81.56032 24340 ft 514 kts 75°
2026-05-07 01:56 38.40109 -81.51595 24773 ft 518 kts 75°
2026-05-07 01:56 38.40998 -81.47134 25221 ft 522 kts 75°
2026-05-07 01:57 38.41896 -81.42633 25658 ft 526 kts 75°
2026-05-07 01:57 38.42801 -81.38100 26071 ft 529 kts 75°
2026-05-07 01:57 38.43713 -81.33530 26506 ft 533 kts 75°
2026-05-07 01:57 38.44626 -81.28931 26940 ft 537 kts 75°
2026-05-07 01:58 38.45542 -81.24304 27397 ft 539 kts 75°
2026-05-07 01:58 38.46458 -81.19661 27839 ft 541 kts 75°
2026-05-07 01:58 38.47377 -81.14992 28247 ft 544 kts 75°
2026-05-07 01:58 38.48300 -81.10296 28666 ft 547 kts 75°
2026-05-07 01:59 38.49225 -81.05572 29095 ft 551 kts 75°
2026-05-07 01:59 38.50157 -81.00814 29516 ft 554 kts 75°
2026-05-07 01:59 38.51094 -80.96024 29927 ft 558 kts 75°
2026-05-07 01:59 38.52036 -80.91207 30299 ft 560 kts 75°
2026-05-07 02:00 38.52978 -80.86374 30644 ft 563 kts 75°
2026-05-07 02:00 38.53926 -80.81504 31031 ft 566 kts 75°
2026-05-07 02:00 38.54877 -80.76601 31325 ft 570 kts 75°
2026-05-07 02:00 38.55830 -80.71671 31641 ft 573 kts 75°
2026-05-07 02:01 38.56783 -80.66715 31961 ft 576 kts 75°
2026-05-07 02:01 38.57739 -80.61731 32255 ft 579 kts 75°
2026-05-07 02:01 38.58695 -80.56737 32686 ft 578 kts 75°
2026-05-07 02:01 38.59646 -80.51757 33098 ft 577 kts 75°
2026-05-07 02:02 38.60599 -80.46762 33465 ft 579 kts 75°
2026-05-07 02:02 38.61551 -80.41754 33792 ft 580 kts 75°
2026-05-07 02:02 38.62505 -80.36733 34151 ft 581 kts 75°
2026-05-07 02:02 38.63457 -80.31717 34530 ft 580 kts 74°
2026-05-07 02:03 38.64407 -80.26700 34883 ft 581 kts 74°
2026-05-07 02:03 38.65355 -80.21672 35212 ft 581 kts 74°
2026-05-07 02:03 38.66300 -80.16643 35521 ft 582 kts 74°
2026-05-07 02:03 38.67241 -80.11612 35830 ft 581 kts 74°
2026-05-07 02:04 38.68177 -80.06578 36131 ft 581 kts 74°
2026-05-07 02:04 38.69115 -80.01545 36480 ft 582 kts 73°
2026-05-07 02:04 38.70055 -79.96512 36879 ft 581 kts 73°
2026-05-07 02:05 38.71918 -79.86499 36981 ft 575 kts 73°
2026-05-07 02:05 38.73748 -79.76539 36960 ft 572 kts 73°
2026-05-07 02:06 38.75565 -79.66618 36928 ft 572 kts 73°
2026-05-07 02:06 38.77372 -79.56710 36922 ft 570 kts 73°
2026-05-07 02:07 38.79168 -79.46825 36922 ft 569 kts 73°
2026-05-07 02:07 38.81855 -79.32004 36897 ft 569 kts 73°
2026-05-07 02:08 38.83692 -79.22144 36890 ft 566 kts 68°
2026-05-07 02:08 38.86795 -79.13014 36912 ft 554 kts 54°
2026-05-07 02:09 38.90403 -79.04303 36882 ft 552 kts 54°
2026-05-07 02:09 38.93985 -78.95576 36899 ft 552 kts 54°
2026-05-07 02:10 38.97557 -78.86835 36902 ft 552 kts 54°
2026-05-07 02:10 39.01123 -78.78093 36901 ft 552 kts 54°
2026-05-07 02:11 39.04681 -78.69338 36934 ft 552 kts 54°
2026-05-07 02:11 39.08210 -78.60648 36912 ft 552 kts 54°
2026-05-07 02:12 39.11786 -78.51815 36922 ft 552 kts 54°
2026-05-07 02:12 39.15301 -78.43101 36928 ft 552 kts 54°
2026-05-07 02:13 39.18833 -78.34342 36912 ft 551 kts 54°
2026-05-07 02:13 39.22362 -78.25547 36966 ft 553 kts 54°
2026-05-07 02:14 39.25894 -78.16716 36917 ft 555 kts 55°
2026-05-07 02:14 39.29432 -78.07848 36903 ft 556 kts 55°
2026-05-07 02:15 39.32966 -77.98967 36903 ft 557 kts 55°
2026-05-07 02:15 39.36506 -77.90037 36897 ft 557 kts 55°
2026-05-07 02:16 39.39112 -77.80497 36965 ft 570 kts 76°
2026-05-07 02:16 39.40421 -77.70359 36919 ft 573 kts 78°
2026-05-07 02:17 39.41720 -77.60177 36915 ft 574 kts 78°
2026-05-07 02:17 39.43019 -77.49984 36929 ft 575 kts 78°
2026-05-07 02:18 39.44312 -77.39785 36936 ft 574 kts 78°
2026-05-07 02:18 39.45590 -77.29587 36942 ft 574 kts 78°
2026-05-07 02:19 39.46860 -77.19389 36935 ft 573 kts 78°
2026-05-07 02:19 39.48122 -77.09210 36941 ft 572 kts 78°
2026-05-07 02:20 39.49505 -76.99087 36936 ft 568 kts 71°
2026-05-07 02:20 39.52220 -76.89612 36945 ft 561 kts 59°
2026-05-07 02:21 39.55313 -76.80304 36896 ft 562 kts 60°
2026-05-07 02:21 39.58379 -76.70974 36891 ft 563 kts 60°
2026-05-07 02:22 39.61427 -76.61636 36894 ft 562 kts 60°
2026-05-07 02:22 39.64471 -76.52287 36892 ft 562 kts 60°
2026-05-07 02:23 39.67515 -76.42954 36908 ft 561 kts 60°
2026-05-07 02:23 39.70546 -76.33602 36901 ft 562 kts 60°
2026-05-07 02:24 39.73568 -76.24235 36887 ft 563 kts 60°
2026-05-07 02:24 39.76590 -76.14847 36878 ft 563 kts 60°
2026-05-07 02:25 39.79602 -76.05458 36889 ft 562 kts 60°
2026-05-07 02:25 39.82605 -75.96076 36903 ft 562 kts 60°
2026-05-07 02:26 39.85093 -75.88278 36915 ft 561 kts 60°
2026-05-07 02:26 39.88574 -75.77314 36893 ft 560 kts 60°
2026-05-07 02:27 39.91562 -75.67961 36934 ft 555 kts 56°
2026-05-07 02:27 39.94620 -75.60732 36927 ft 546 kts 50°
2026-05-07 02:28 39.98422 -75.52182 36924 ft 545 kts 50°
2026-05-07 02:28 40.02230 -75.43590 36915 ft 550 kts 50°
2026-05-07 02:29 40.06050 -75.34931 36896 ft 550 kts 51°
2026-05-07 02:29 40.09862 -75.26257 36901 ft 550 kts 51°
2026-05-07 02:30 40.13658 -75.17578 36900 ft 550 kts 51°
2026-05-07 02:30 40.17446 -75.08890 36927 ft 550 kts 51°
2026-05-07 02:31 40.21240 -75.00188 36888 ft 551 kts 51°
2026-05-07 02:31 40.25018 -74.91470 36874 ft 553 kts 53°
2026-05-07 02:32 40.28242 -74.82234 36876 ft 559 kts 58°
2026-05-07 02:32 40.31396 -74.72924 36876 ft 559 kts 58°
2026-05-07 02:33 40.34550 -74.63611 36889 ft 559 kts 58°
2026-05-07 02:33 40.37696 -74.54284 36863 ft 559 kts 58°
2026-05-07 02:34 40.40829 -74.44968 36861 ft 559 kts 58°
2026-05-07 02:34 40.43953 -74.35621 36837 ft 559 kts 59°
2026-05-07 02:35 40.47065 -74.26279 36869 ft 558 kts 59°
2026-05-07 02:35 40.50170 -74.16941 36911 ft 557 kts 59°
2026-05-07 02:36 40.53264 -74.07611 36889 ft 557 kts 59°
2026-05-07 02:36 40.56349 -73.98272 36868 ft 556 kts 59°
2026-05-07 02:37 40.59412 -73.88995 36847 ft 557 kts 59°
2026-05-07 02:37 40.60982 -73.84238 36181 ft 562 kts 59°
2026-05-07 02:37 40.62616 -73.79651 35402 ft 560 kts 53°
2026-05-07 02:38 40.64726 -73.75296 34558 ft 553 kts 43°
2026-05-07 02:38 40.67180 -73.71464 33867 ft 545 kts 37°
2026-05-07 02:38 40.69718 -73.67780 33334 ft 541 kts 37°
2026-05-07 02:38 40.72226 -73.64108 32795 ft 536 kts 37°
2026-05-07 02:39 40.74543 -73.60701 32375 ft 530 kts 38°
2026-05-07 02:39 40.77003 -73.57073 31877 ft 526 kts 38°
2026-05-07 02:39 40.79429 -73.53493 31384 ft 521 kts 38°
2026-05-07 02:39 40.81836 -73.49943 30901 ft 519 kts 38°
2026-05-07 02:40 40.84238 -73.46403 30433 ft 515 kts 38°
2026-05-07 02:40 40.86621 -73.42895 29966 ft 511 kts 38°
2026-05-07 02:40 40.88987 -73.39415 29452 ft 506 kts 38°
2026-05-07 02:40 40.91324 -73.35973 29023 ft 500 kts 38°
2026-05-07 02:41 40.93627 -73.32567 28581 ft 495 kts 38°
2026-05-07 02:41 40.95882 -73.29226 28130 ft 490 kts 39°
2026-05-07 02:41 40.98167 -73.25839 27759 ft 485 kts 39°
2026-05-07 02:41 41.00407 -73.22522 27300 ft 482 kts 39°
2026-05-07 02:42 41.02629 -73.19229 26877 ft 478 kts 39°
2026-05-07 02:42 41.04837 -73.15952 26420 ft 476 kts 39°
2026-05-07 02:42 41.07008 -73.12718 25985 ft 474 kts 39°
2026-05-07 02:42 41.09226 -73.09410 25520 ft 473 kts 39°
2026-05-07 02:43 41.11408 -73.06157 25052 ft 472 kts 39°
2026-05-07 02:43 41.13592 -73.02897 24575 ft 472 kts 40°
2026-05-07 02:43 41.15739 -72.99692 24109 ft 472 kts 40°
2026-05-07 02:43 41.17908 -72.96450 23804 ft 467 kts 40°
2026-05-07 02:44 41.20042 -72.93214 23377 ft 466 kts 43°
2026-05-07 02:44 41.21887 -72.89584 23028 ft 470 kts 57°
2026-05-07 02:44 41.23347 -72.85751 22890 ft 459 kts 58°
2026-05-07 02:44 41.24746 -72.82065 22743 ft 447 kts 58°
2026-05-07 02:45 41.26146 -72.78412 22451 ft 441 kts 58°
2026-05-07 02:45 41.27536 -72.74806 22113 ft 436 kts 58°
2026-05-07 02:45 41.28831 -72.71447 21788 ft 432 kts 58°
2026-05-07 02:45 41.30195 -72.67897 21465 ft 429 kts 59°
2026-05-07 02:46 41.31546 -72.64369 21099 ft 426 kts 59°
2026-05-07 02:46 41.32879 -72.60872 20751 ft 423 kts 60°
2026-05-07 02:46 41.34200 -72.57393 20418 ft 418 kts 60°
2026-05-07 02:46 41.35502 -72.53954 20117 ft 414 kts 60°
2026-05-07 02:47 41.36790 -72.50544 19814 ft 411 kts 61°
2026-05-07 02:47 41.38064 -72.47164 19519 ft 406 kts 61°
2026-05-07 02:47 41.39327 -72.43813 19215 ft 403 kts 62°
2026-05-07 02:47 41.40583 -72.40485 18980 ft 401 kts 62°
2026-05-07 02:48 41.41833 -72.37176 18744 ft 398 kts 62°
2026-05-07 02:48 41.43075 -72.33889 18516 ft 395 kts 62°
2026-05-07 02:48 41.44304 -72.30625 18282 ft 393 kts 62°
2026-05-07 02:48 41.45523 -72.27375 18040 ft 391 kts 63°
2026-05-07 02:49 41.46732 -72.24150 17967 ft 388 kts 62°
2026-05-07 02:49 41.47940 -72.20930 18001 ft 389 kts 62°
2026-05-07 02:49 41.49142 -72.17703 17998 ft 388 kts 63°
2026-05-07 02:49 41.50327 -72.14476 17998 ft 388 kts 63°
2026-05-07 02:50 41.51507 -72.11239 18004 ft 388 kts 63°
2026-05-07 02:50 41.52685 -72.07999 18002 ft 388 kts 63°
2026-05-07 02:50 41.53862 -72.04755 18001 ft 388 kts 63°
2026-05-07 02:50 41.55040 -72.01514 18001 ft 388 kts 63°
2026-05-07 02:51 41.56192 -71.98253 17997 ft 388 kts 65°
2026-05-07 02:51 41.57250 -71.94942 18005 ft 388 kts 68°
2026-05-07 02:51 41.58245 -71.91588 18019 ft 388 kts 69°
2026-05-07 02:51 41.59211 -71.88222 18000 ft 388 kts 69°
2026-05-07 02:52 41.60171 -71.84858 18005 ft 388 kts 69°
2026-05-07 02:52 41.61137 -71.81496 18013 ft 387 kts 69°
2026-05-07 02:52 41.62110 -71.78145 17749 ft 385 kts 69°
2026-05-07 02:52 41.63084 -71.74828 17386 ft 383 kts 68°
2026-05-07 02:53 41.64062 -71.71516 17040 ft 381 kts 68°
2026-05-07 02:53 41.65034 -71.68231 16704 ft 379 kts 68°
2026-05-07 02:53 41.66000 -71.64962 16365 ft 377 kts 68°
2026-05-07 02:53 41.66960 -71.61702 16053 ft 376 kts 68°
2026-05-07 02:54 41.67914 -71.58461 15797 ft 374 kts 69°
2026-05-07 02:54 41.68865 -71.55236 15478 ft 372 kts 68°
2026-05-07 02:54 41.69835 -71.52038 15155 ft 370 kts 68°
2026-05-07 02:54 41.70793 -71.48845 14901 ft 370 kts 69°
2026-05-07 02:55 41.71717 -71.45643 14677 ft 368 kts 69°
2026-05-07 02:55 41.72709 -71.42497 14434 ft 366 kts 61°
2026-05-07 02:55 41.73948 -71.39531 14202 ft 364 kts 59°
2026-05-07 02:55 41.75193 -71.36601 13972 ft 363 kts 59°
2026-05-07 02:56 41.76445 -71.33664 13737 ft 361 kts 59°
2026-05-07 02:56 41.77691 -71.30747 13482 ft 360 kts 59°
2026-05-07 02:56 41.78932 -71.27837 13219 ft 359 kts 59°
2026-05-07 02:56 41.80165 -71.24946 12950 ft 357 kts 59°
2026-05-07 02:57 41.81392 -71.22063 12691 ft 355 kts 59°
2026-05-07 02:57 41.82612 -71.19195 12432 ft 353 kts 59°
2026-05-07 02:57 41.83811 -71.16373 12180 ft 352 kts 59°
2026-05-07 02:57 41.85015 -71.13534 11927 ft 350 kts 59°
2026-05-07 02:58 41.86215 -71.10709 11701 ft 347 kts 59°
2026-05-07 02:58 41.87421 -71.07916 11452 ft 345 kts 58°
2026-05-07 02:58 41.88628 -71.05141 11201 ft 343 kts 58°
2026-05-07 02:58 41.89829 -71.02383 10951 ft 341 kts 58°
2026-05-07 02:59 41.91019 -70.99636 10714 ft 340 kts 59°
2026-05-07 02:59 41.91420 -70.98708 10626 ft 339 kts 59°
2026-05-07 02:59 41.93441 -70.94021 10219 ft 337 kts 59°
2026-05-07 02:59 41.94608 -70.91303 9982 ft 335 kts 59°
2026-05-07 03:00 41.95770 -70.88593 9848 ft 335 kts 59°
2026-05-07 03:00 41.96931 -70.85885 9693 ft 334 kts 59°
2026-05-07 03:00 41.98090 -70.83176 9562 ft 334 kts 59°
2026-05-07 03:00 41.99248 -70.80477 9432 ft 333 kts 59°
2026-05-07 03:01 42.00400 -70.77791 9325 ft 330 kts 59°
2026-05-07 03:01 42.01714 -70.75290 9183 ft 326 kts 46°
2026-05-07 03:01 42.03231 -70.73034 9052 ft 325 kts 45°
2026-05-07 03:01 42.04748 -70.70777 8929 ft 324 kts 45°
2026-05-07 03:02 42.06254 -70.68524 8788 ft 324 kts 45°
2026-05-07 03:02 42.07755 -70.66266 8598 ft 323 kts 46°
2026-05-07 03:02 42.09258 -70.64025 8302 ft 321 kts 42°
2026-05-07 03:02 42.10985 -70.62195 8002 ft 313 kts 25°
2026-05-07 03:03 42.12950 -70.61053 7708 ft 304 kts
2026-05-07 03:03 42.14995 -70.60460 7424 ft 300 kts
2026-05-07 03:03 42.17038 -70.59902 7156 ft 299 kts
2026-05-07 03:03 42.19067 -70.59341 6878 ft 297 kts
2026-05-07 03:04 42.21081 -70.58778 6593 ft 295 kts
2026-05-07 03:04 42.23089 -70.58218 6313 ft 293 kts
2026-05-07 03:04 42.25066 -70.57665 6020 ft 292 kts
2026-05-07 03:04 42.26381 -70.57293 5834 ft 291 kts
2026-05-07 03:05 42.28359 -70.56734 5560 ft 290 kts
2026-05-07 03:05 42.30309 -70.56224 5286 ft 285 kts
2026-05-07 03:05 42.32235 -70.56403 5053 ft 272 kts 338°
2026-05-07 03:05 42.33916 -70.57441 4993 ft 261 kts 318°
2026-05-07 03:06 42.35253 -70.59055 4997 ft 257 kts 309°
2026-05-07 03:06 42.36532 -70.60743 5009 ft 258 kts 310°
2026-05-07 03:06 42.37821 -70.62434 4997 ft 259 kts 310°
2026-05-07 03:06 42.39117 -70.64132 4995 ft 259 kts 310°
2026-05-07 03:07 42.40413 -70.65828 4991 ft 259 kts 310°
2026-05-07 03:07 42.41708 -70.67528 4989 ft 260 kts 310°
2026-05-07 03:07 42.43004 -70.69226 4986 ft 259 kts 310°
2026-05-07 03:07 42.44292 -70.70918 4984 ft 259 kts 310°
2026-05-07 03:08 42.45586 -70.72620 4986 ft 259 kts 310°
2026-05-07 03:08 42.46865 -70.74311 4894 ft 252 kts 310°
2026-05-07 03:08 42.48087 -70.75918 4793 ft 238 kts 310°
2026-05-07 03:08 42.49246 -70.77443 4693 ft 227 kts 310°
2026-05-07 03:09 42.50352 -70.78896 4590 ft 217 kts 310°
2026-05-07 03:09 42.51438 -70.80297 4468 ft 216 kts 314°
2026-05-07 03:09 42.52810 -70.81213 4337 ft 227 kts 340°
2026-05-07 03:09 42.54413 -70.81219 4210 ft 238 kts
2026-05-07 03:10 42.55995 -70.80492 4099 ft 240 kts 14°
2026-05-07 03:10 42.57541 -70.79768 3984 ft 229 kts
2026-05-07 03:10 42.59043 -70.79867 3984 ft 211 kts 332°
2026-05-07 03:10 42.60129 -70.81042 3980 ft 196 kts 297°
2026-05-07 03:11 42.60719 -70.82690 3982 ft 194 kts 288°
2026-05-07 03:11 42.61212 -70.84386 3979 ft 193 kts 286°
2026-05-07 03:11 42.61493 -70.86135 3974 ft 189 kts 263°
2026-05-07 03:11 42.60984 -70.87763 3984 ft 192 kts 235°
2026-05-07 03:12 42.60021 -70.88955 3967 ft 185 kts 216°
2026-05-07 03:12 42.58841 -70.89647 3969 ft 185 kts 205°
2026-05-07 03:12 42.57646 -70.90229 3973 ft 185 kts 206°
2026-05-07 03:12 42.56435 -70.90820 3887 ft 185 kts 206°
2026-05-07 03:13 42.55209 -70.91418 3686 ft 185 kts 206°
2026-05-07 03:13 42.53999 -70.92007 3457 ft 185 kts 205°
2026-05-07 03:13 42.52786 -70.92598 3213 ft 186 kts 206°
2026-05-07 03:13 42.51585 -70.93183 2968 ft 187 kts 206°
2026-05-07 03:14 42.50344 -70.93786 2720 ft 187 kts 206°
2026-05-07 03:14 42.49142 -70.94371 2479 ft 189 kts 206°
2026-05-07 03:14 42.46689 -70.95561 1971 ft 182 kts 207°
2026-05-07 03:15 42.45556 -70.96108 1739 ft 169 kts 206°
2026-05-07 03:15 42.44466 -70.96638 1520 ft 160 kts 207°
2026-05-07 03:15 42.43460 -70.97126 1324 ft 148 kts 206°
2026-05-07 03:15 42.42546 -70.97568 1112 ft 133 kts 206°
2026-05-07 03:16 42.41705 -70.97980 931 ft 128 kts 205°
2026-05-07 03:16 42.40890 -70.98374 762 ft 124 kts 202°
2026-05-07 03:16 42.40084 -70.98762 623 ft 122 kts 202°
2026-05-07 03:16 42.39275 -70.99156 457 ft 124 kts 201°
2026-05-07 03:17 42.38457 -70.99553 266 ft 124 kts 203°
2026-05-07 03:17 42.37657 -70.99946 114 ft 122 kts 202°
2026-05-07 03:17 42.36879 -71.00328 28 ft 109 kts 200°
2026-05-07 03:17 42.36301 -71.00607 27 ft 64 kts 199°
2026-05-07 03:18 42.36050 -71.00735 27 ft 26 kts 210°
2026-05-07 03:18 42.35930 -71.00896 28 ft 23 kts 229°
2026-05-07 03:18 42.35850 -71.01021 27 ft 14 kts 230°
2026-05-07 03:18 42.35835 -71.01151 27 ft 15 kts 277°
2026-05-07 03:19 42.35850 -71.01297 28 ft 16 kts 277°
2026-05-07 03:19 42.35863 -71.01431 28 ft 14 kts 278°
2026-05-07 03:19 42.35879 -71.01532 27 ft 4 kts 284°
2026-05-07 03:19 42.35883 -71.01553 27 ft 3 kts 285°
2026-05-07 03:20 42.35890 -71.01592 26 ft 5 kts 281°
2026-05-07 03:20 42.35915 -71.01634 28 ft 5 kts 342°
2026-05-07 03:20 42.35953 -71.01622 26 ft 5 kts 21°
2026-05-07 03:20 42.35989 -71.01604 26 ft 5 kts 20°
2026-05-07 03:21 42.36019 -71.01605 26 ft 5 kts 332°
2026-05-07 03:21 42.36033 -71.01653 25 ft 7 kts 286°
2026-05-07 03:21 42.36042 -71.01691 28 ft 0 kts 289°
2026-05-07 03:21 42.36044 -71.01699 26 ft 2 kts 289°
2026-05-07 03:22 42.36045 -71.01704 26 ft 0 kts 289°